NOAA 16 DEB, 41287

Orbit data source: Space-Track

NOAA 16 DEB, 41287 is space debris in SSO originally from a launch on Thu, 21 Sep 2000 UTC launched from the Air Force Western Test Range (AFWTR). Debris objects in space refer to the collection of defunct objects orbiting the Earth. Examples of debris include non-operational satellites, rocket bodies, and fragments generated from explosions, collisions, or faulty payload assembly.

Loading next visibility...
Identifier
41287, 2000-055GP
Orbit
SSO
Country
Flag of USUS
Related business
Manufacturer
Unknown
Mission
Spacecraft
Bus & Motor
Unknown
Mass
Unknown
Launch date (UTC)
2000-09-21 (26 years ago)
Launch vehicle
Unknown
Launch site
Air Force Western Test Range (AFWTR)
Object type
Payload
Rocket body
Debris
Shape & HBR
Unknown shape, 0.1 m
Radar Cross Section
Medium (>0.1 m² and <1 m²)

Expand to show TLE details & history
Last TLE update: 20 hours ago

TLE from 20 hours ago
0 NOAA 16 DEB
1 41287U 00055GP  26255.15839224  .00003438  00000-0  13570-2 0  9992
2 41287  98.8649 330.9638 0025921 338.7053  21.3048 14.29555100551706
Epoch: 2026-09-12T03:48Z
TLE epoch observation values (Epoch: 2026-09-12T03:48:05.089Z)
Latitude
0.00003°
Longitude
-77.22882°
Altitude
778.825 km
Speed
7.474 km/s
True Right ascension
22h 03m 51s
True Declination
0° 00' 00"
Sunlit
Object was in full shadow at epoch
Visualization orbit readout
Latitude
Unknown
Longitude
Unknown
Altitude
Unknown
Speed
Unknown
Apparent Right ascension
Unknown
Apparent Declination
Unknown
Sunlit
N/A
Visualization observer readout
Local Sidereal Time
16:31:54
Azimuth
Unknown
Elevation
Unknown
Doppler factor
Unknown
Orbital elements
Apogee altitude
808.953 km
Perigee altitude
771.79 km
Semi-major axis
7,168.509 km
Eccentricity
0.00259
Inclination
98.8649°
RAAN
330.9638°
Arg. of periapsis
338.7053°
True anomaly
21.41305°
Mean anomaly
21.3048°
Eccentric anomaly
21.35889°
Mean motion
3.57602 °/min
Orbital period
100.67 mins
BSTAR
0.001357
Loading maneuver chart data...
Computing Atmospheric mass density...
Loading historical data...
Loading historical data...
Loading historical data...
Loading historical data...
Loading historical data...
Loading historical data...
Loading historical data...

Documentation

Showing up to 5 results
|